Regional Weather Roundup
Issued by NWS Newport/Morehead, NC

Current Version | Previous Version | Graphics & Text | Print | Product List | Glossary Off
Versions: 1 2 3 4 5 6 7 8 9 10 11 12 13 14 15 16 17 18 19 20 21 22 23 24 25 26 27 28 29 30 31 32 33 34 35 36 37 38 39 40 41 42 43 44 45 46 47 48 49 50

000
ASUS42 KMHX 280725
RWRMHX
WEATHER ROUNDUP FOR EASTERN NORTH CAROLINA
NATIONAL WEATHER SERVICE NEWPORT/MOREHEAD CITY NC
300 AM EDT TUE JUL 28 2015

NOTE: "FAIR" INDICATES FEW OR NO CLOUDS BELOW 12,000 FEET
WITH NO SIGNIFICANT WEATHER AND/OR OBSTRUCTIONS TO VISIBILITY

NCZ015>017-031-032-045>047-102-103-280800-
NORTH COAST

CITY           SKY/WX    TMP DP  RH WIND       PRES   REMARKS
EDENTON        CLEAR     72  70  92 CALM      30.02R
ELIZABETH CITY CLEAR     71  70  96 CALM      30.01F
KITTY HAWK     SUNNY     73  67  81 CALM      30.00F
MANTEO         CLEAR     73  69  88 CALM      30.01F

$$

NCZ045>047-081-094-103-104-280800-
CENTRAL COAST

CITY           SKY/WX    TMP DP  RH WIND       PRES   REMARKS
FRISCO         CLEAR     73  69  87 NE3       30.01S
SWANQUARTER      N/A     72 N/A N/A E2        29.97S

$$

NCZ095-097-098-100-101-280800-
SOUTHERN COAST

CITY           SKY/WX    TMP DP  RH WIND       PRES   REMARKS
BEAUFORT       CLEAR     74  71  91 NE3       29.99F
CEDAR ISLAND     N/A     77 N/A N/A E6        30.03S
JACKSONVILLE   CLEAR     75  71  87 N5        29.99F
PINEY ISLAND   SUNNY    N/A N/A N/A SE3       29.99F
WILMINGTON     CLEAR     72  70  93 CALM      29.99F


$$

NCZ011>013-027>030-043-044-078>080-089-090>093-098-280800-
COASTAL PLAIN

CITY           SKY/WX    TMP DP  RH WIND       PRES   REMARKS
AHOSKIE        CLEAR     69  68  97 CALM      30.02S
CLINTON        PTCLDY    73  72  98 CALM      30.01F
ELIZABETHTOWN  PTCLDY    73  73  99 CALM      30.00F
GOLDSBORO      CLEAR     72  72 100 CALM      29.99F
GREENVILLE     CLEAR     72  72 100 CALM      30.03S FOG
HAVELOCK       CLEAR     73  70  90 CALM      30.01F
KENANSVILLE    CLEAR     70  69  96 CALM      30.02S
KINSTON        CLEAR     71  70  96 CALM      30.02F
NEW BERN       CLEAR     72  70  93 CALM      30.02S
RICHLANDS      CLEAR     70  64  83 CALM      30.00F
ROCKY MOUNT    CLEAR     72  70  93 CALM      30.02S
WASHINGTON     CLEAR     71  69  95 CALM      30.01F
WHITEVILLE     CLEAR     73  71  95 CALM      29.99S FOG

$$

AMZ130-135-150-152-154-156-158-170-250-252-270-ANZ085-086-088-633-658-670-280800-
MARINE OBSERVATIONS

STATION/POSITION TIME  TEMP    WIND        PRES    WAVE   SWELL
                       AIR SEA DIR/SP/G            HT/PER HT/PER
                 (UTC) (F)     (DEG/KT/KT) (MB)    (FT/S) (FT/S)
CHESAPEAKE LIGHT 0700   80     200/ 11/ 12 1016.8
64 E VA BEACH    0650   80 80  180/  6/  8 1016.1    3/ 5   3/ 5
DUCK             0700   78 76  150/  6/  6 1015.3
2 E DUCK         0711      79                N/A     2/ 6
OREGON INLET     0700   77 81  120/  3/  4 1016.1
13E OREGON INLT  0700      79                N/A     2/12   2/12
HATTERAS CG      0700   79 82   70/  2/  2 1015.6
DIAMOND BUOY     NOT AVBL
CAPE LOOKOUT     0700   80      90/  7/  8 1015.4
BEAUFORT LAB     0700   79 81   80/  2/  4 1014.9
30 SE NEW RVR IN NOT AVBL
27 SE WRIGHTSVLE 0700   78 81   90/  8/ 10   N/A
5 SE WRIGHTSVLE  0608   81 81  110/  8/ 10 1015.4
225 S CAPE HAT   0650   80 82  260/ 16/ 19 1014.3    5/ 6   2/11
41 SE CHARLESTON 0650   82 84   60/  6/  6 1013.4    3/ 7   3/ 7

$$



USA.gov is the U.S. government's official web portal to all federal, state and local government web resources and services.